This is the latest recevied weather packets stored in our database for station/object EA1IOK-1. If no packets are shown the sender has not sent any weather packets the latest 10 day(s).
| Time | Temp. | Humidity | Pressure | Rain* | Wind** | Luminosity | Snow |
|---|---|---|---|---|---|---|---|
| 1777890297 | 16.67° C | 100% | 1014.1 hPa | - | - | - | - |
| 1777889393 | 19.44° C | 91% | 1014.3 hPa | - | - | - | - |
| 1777887596 | 13.89° C | 100% | 1014.3 hPa | - | - | - | - |
| 1777886691 | 13.89° C | 100% | 1014.2 hPa | - | - | - | - |
| 1777885792 | 16.11° C | 100% | 1014.2 hPa | - | - | - | - |
| 1777884894 | 17.78° C | 100% | 1014.3 hPa | - | - | - | - |
| 1777883993 | 18.33° C | 100% | 1014.4 hPa | - | - | - | - |
| 1777883088 | 13.89° C | 100% | 1014.4 hPa | - | - | - | - |
| 1777882188 | 16.67° C | 100% | 1014.3 hPa | - | - | - | - |
| 1777881291 | 16.11° C | 100% | 1014.3 hPa | - | - | - | - |
| 1777880387 | 12.78° C | 100% | 1014.3 hPa | - | - | - | - |
| 1777879486 | 12.78° C | 100% | 1014.2 hPa | - | - | - | - |
| 1777878585 | 11.67° C | 100% | 1014 hPa | - | - | - | - |
| 1777877685 | 10.56° C | 100% | 1014 hPa | - | - | - | - |
| 1777876783 | 10.56° C | 100% | 1013.8 hPa | - | - | - | - |
| 1777875887 | 10.56° C | 100% | 1013.6 hPa | - | - | - | - |
| 1777874982 | 9.44° C | 100% | 1013.5 hPa | - | - | - | - |
| 1777874083 | 9.44° C | 100% | 1013.4 hPa | - | - | - | - |
| 1777873180 | 9.44° C | 100% | 1013.2 hPa | - | - | - | - |
| 1777872279 | 9.44° C | 100% | 1013.1 hPa | - | - | - | - |
| 1777871378 | 9.44° C | 100% | 1013.1 hPa | - | - | - | - |
| 1777870478 | 9.44° C | 100% | 1013.1 hPa | - | - | - | - |
| 1777869589 | 9.44° C | 100% | 1013.1 hPa | - | - | - | - |
| 1777867777 | 10° C | 100% | 1013.1 hPa | - | - | - | - |
| 1777866876 | 10° C | 100% | 1013.2 hPa | - | - | - | - |
* Rain since midnight (hover to see other rain measurements)
** Current wind speed in m/s (hover to see current wind gust speed)